Indian Springs, NV

3:58 AM PDT on April 20, 2018 (GMT -0700)
Indian Springs Air Force Auxiliary

Weather History for KINS - February, 2013

Change the Weather History Date:

Sunday, February 17, 2013

  Actual Average (KDRA) Record (KDRA)
Temperature  
Mean Temperature 48 °F -  
Max Temperature 66 °F 55 °F 76 °F (1981)
Min Temperature 30 °F 36 °F 27 °F (2006)
Degree Days  
Heating Degree Days 17    
Moisture  
Dew Point 9 °F    
Average Humidity 23    
Maximum Humidity 49    
Minimum Humidity 6    
Precipitation  
Precipitation 0.00 in - - ()
Sea Level Pressure  
Sea Level Pressure 29.91 in    
Wind  
Wind Speed 7 mph (WNW)    
Max Wind Speed 17 mph    
Max Gust Speed 21 mph    
Visibility 10 miles    
Events      
Averages and records for this station are not official NWS values.
T = Trace of Precipitation, MM = Missing Value Source: NWS Daily Summary

Daily Weather History Graph

Daily Weather History Graph

Search for Another Location

Airport or City:

Astronomy

Feb. 17, 2013 Rise Set
Actual Time 6:28 AM PST 5:25 PM PST
Civil Twilight 6:01 AM PST 5:52 PM PST
Nautical Twilight 5:31 AM PST 6:22 PM PST
Astronomical Twilight 5:01 AM PST 6:52 PM PST
Moon 10:36 AM PST (2/17) 12:12 AM PST (2/17)
Length of Visible Light 11h 50m
Length of Day
10h 57m
Waxing Crescent, 50% of the Moon is Illuminated
Feb 17
Waxing Crescent
Feb 17
First Quarter
Feb 25
Full
Mar 4
Last Quarter
Mar 11
New

Hourly Weather History & Observations

Time (PST) Temp. Windchill Dew Point Humidity Pressure Visibility Wind Dir Wind Speed Gust Speed Precip Events Conditions
12:58 AM 39.9 °F 35.8 °F 15.3 °F 37% 30.00 in 10.0 mi Variable 5.8 mph - N/A   Scattered Clouds
1:58 AM 37.8 °F 35.3 °F 14.4 °F 38% 29.98 in 10.0 mi SW 3.5 mph - N/A   Clear
2:58 AM 34.9 °F - 15.1 °F 44% 29.94 in 10.0 mi Variable 2.3 mph - N/A   Clear
3:58 AM 35.1 °F 29.3 °F 13.6 °F 41% 29.93 in 10.0 mi SSW 6.9 mph - N/A   Clear
4:58 AM 32.5 °F 27.1 °F 11.7 °F 42% 29.92 in 10.0 mi West 5.8 mph - N/A   Clear
5:58 AM 30.7 °F - 13.5 °F 49% 29.92 in 10.0 mi NE 2.3 mph - N/A   Clear
6:58 AM 31.8 °F 24.6 °F 13.1 °F 46% 29.91 in 10.0 mi West 8.1 mph - N/A   Clear
7:58 AM 37.6 °F - 14.0 °F 38% 29.92 in 10.0 mi Variable 2.3 mph - N/A   Clear
8:58 AM 42.4 °F 40.7 °F 14.9 °F 33% 29.92 in 10.0 mi North 3.5 mph - N/A   Clear
9:58 AM 49.6 °F - 14.4 °F 24% 29.91 in 10.0 mi NE 3.5 mph - N/A   Clear
10:51 AM 59.0 °F - 14.0 °F 17% 29.90 in 10.0 mi NW 15.0 mph 19.6 mph N/A   Clear
10:58 AM 59.5 °F - 13.1 °F 16% 29.90 in 10.0 mi Variable 6.9 mph 18.4 mph N/A   Clear
11:58 AM 63.3 °F - 8.6 °F 12% 29.88 in 10.0 mi WNW 12.7 mph 20.7 mph N/A   Clear
12:44 PM 64.4 °F - 6.8 °F 10% 29.87 in 10.0 mi WNW 16.1 mph - N/A   Clear
12:58 PM 64.4 °F - 6.8 °F 10% 29.86 in 10.0 mi West 9.2 mph - N/A   Clear
1:58 PM 64.8 °F - 4.8 °F 9% 29.85 in 10.0 mi WSW 11.5 mph 17.3 mph N/A   Clear
2:58 PM 65.5 °F - 2.7 °F 8% 29.83 in 10.0 mi WSW 12.7 mph - N/A   Clear
3:35 PM 66.2 °F - -0.4 °F 7% 29.83 in 10.0 mi NW 16.1 mph - N/A   Clear
3:58 PM 66.0 °F - -3.1 °F 6% 29.84 in 10.0 mi NW 17.3 mph - N/A   Clear
4:58 PM 63.5 °F - -1.5 °F 7% 29.85 in 10.0 mi NW 12.7 mph - N/A   Clear
5:58 PM 58.5 °F - 2.1 °F 10% 29.86 in 10.0 mi NW 10.4 mph - N/A   Clear
6:58 PM 55.0 °F - 3.4 °F 12% 29.88 in 10.0 mi WNW 11.5 mph - N/A   Clear
7:58 PM 52.7 °F - 6.3 °F 15% 29.91 in 10.0 mi WNW 15.0 mph - N/A   Clear
8:58 PM 52.9 °F - 5.0 °F 14% 29.94 in 10.0 mi Variable 2.3 mph - N/A   Clear
9:58 PM 47.7 °F - 8.4 °F 20% 29.96 in 10.0 mi WSW 2.3 mph - N/A   Clear
10:58 PM 46.2 °F 44.1 °F 10.0 °F 23% 29.97 in 10.0 mi WNW 4.6 mph - N/A   Clear
11:58 PM 46.8 °F - 12.6 °F 25% 29.99 in 10.0 mi NNE 1.2 mph - N/A   Clear